• Join FlightAware (Why Join?)
  • Login
  • US Flag 
01:12PM EDT


 

Airport Tracker/Info


-or-


 

Live Flight TrackerFlight Track Log ✈ UAL395 ✈ 15-Oct-2013 ✈ KEWR - KFLL

Flight Track Log - Related Links

Times and Time Zones

All times are in EDT time to prevent confusion due to time zone crossing. See the UAL395 flight status page for this flight to view local times or setup timezone preferences in your user account.

Time Position Orientation Groundspeed Altitude Reporting Facility
EDT Latitude Longitude Course Direction KTS MPH feet Rate Location/Type
03:23PM 40.6667 -74.1833 210° Southwest 160 184 1,100  Level New York TRACON
03:24PM 40.6167 -74.2000 194° South 215 247 2,400 1,920 Climbing New York TRACON
03:25PM 40.5667 -74.2667 225° Southwest 269 310 5,000 1,620 Climbing New York TRACON
03:26PM 40.3330 -74.3458 201° Southwest  Level Estimated
03:26PM 40.4833 -74.2500 171° South 270 311 5,900  Level New York TRACON
03:27PM 40.2131 -74.4044 207° Southwest  Level Estimated
03:28PM 40.0932 -74.4629 210° Southwest  Level Estimated
03:28PM 40.3786 -74.1931 157° South 274 315 6,000  Level New York Center
03:29PM 40.2981 -74.1672 166° South 274 315 9,000 2,400 Climbing New York Center
03:30PM 40.2244 -74.1908 194° South 285 328 10,900 1,920 Climbing New York Center
03:31PM 40.1319 -74.2161 192° South 323 372 12,900 2,160 Climbing New York Center
03:33PM 39.9819 -74.3458 214° Southwest 341 392 17,000 2,100 Climbing Washington Center
03:34PM 39.9017 -74.4367 221° Southwest 364 419 18,700 1,680 Climbing Washington Center
03:35PM 39.8172 -74.5325 221° Southwest 388 447 20,400 1,680 Climbing Washington Center
03:36PM 39.7325 -74.6283 221° Southwest 401 461 22,100 1,560 Climbing Washington Center
03:37PM 39.6417 -74.7292 221° Southwest 418 481 23,600 1,440 Climbing Washington Center
03:38PM 39.5633 -74.8458 229° Southwest 423 487 25,000 1,380 Climbing Washington Center
03:39PM 39.4911 -74.9731 234° Southwest 430 495 26,400 1,260 Climbing Washington Center
03:40PM 39.4019 -75.0919 226° Southwest 451 519 27,600 1,140 Climbing Washington Center
03:41PM 39.2939 -75.1786 212° Southwest 451 519 28,800 960 Climbing Washington Center
03:42PM 39.1858 -75.2247 198° South 447 514 29,600 840 Climbing Washington Center
03:43PM 39.0544 -75.2628 193° South 466 536 30,500 960 Climbing Washington Center
03:44PM 38.9233 -75.3114 196° South 484 557 31,600 720 Climbing Washington Center
03:45PM 38.7922 -75.3547 194° South 484 557 32,000 120 Climbing Washington Center
03:47PM 38.5317 -75.4483 196° South 489 563 32,000 300 Level Washington Center
03:48PM 38.4025 -75.4936 195° South 494 568 33,000 1,320 Climbing Washington Center
03:49PM 38.2692 -75.5758 206° Southwest 489 563 34,700 1,260 Climbing Washington Center
03:50PM 38.1669 -75.6736 217° Southwest 470 541 35,500 600 Climbing Washington Center
03:51PM 38.0644 -75.7711 217° Southwest 476 548 36,000 240 Climbing Washington Center
03:52PM 37.9642 -75.8658 217° Southwest 470 541 36,000  Level Washington Center
03:53PM 37.8639 -75.9600 217° Southwest 459 528 36,000  Level Washington Center
03:54PM 37.7844 -76.0358 217° Southwest 454 522 36,000 -60 Level Washington Center
03:55PM 37.6756 -76.1453 219° Southwest 454 522 35,900  Descending Washington Center
03:56PM 37.5644 -76.2389 214° Southwest 454 522 36,000 60 Climbing Washington Center
03:57PM 37.4617 -76.3322 216° Southwest 454 522 36,100  Climbing Washington Center
03:58PM 37.3611 -76.4253 216° Southwest 454 522 36,000 -60 Descending Washington Center
03:59PM 37.2561 -76.5131 214° Southwest 454 522 36,000  Level Washington Center
04:00PM 37.1389 -76.5819 205° Southwest 459 528 36,000  Level Washington Center
04:01PM 37.0192 -76.6481 204° Southwest 465 535 36,000  Level Washington Center
04:02PM 36.8978 -76.7164 204° Southwest 471 542 36,000  Level Washington Center
04:03PM 36.7781 -76.7847 205° Southwest 471 542 36,000  Level Washington Center
04:04PM 36.6564 -76.8528 204° Southwest 476 548 36,000  Level Washington Center
04:05PM 36.5367 -76.9233 205° Southwest 476 548 36,000  Level Washington Center
04:06PM 36.4169 -76.9883 204° Southwest 481 554 36,000  Level Washington Center
04:07PM 36.2931 -77.0558 204° Southwest 481 554 36,000 -60 Level Washington Center
04:08PM 36.1733 -77.1231 204° Southwest 481 554 35,900  Descending Washington Center
04:09PM 36.0706 -77.1800 204° Southwest 465 535 36,000  Climbing Washington Center
04:10PM 35.9486 -77.2444 203° Southwest 465 535 36,000  Level Washington Center
04:11PM 35.8267 -77.3108 204° Southwest 470 541 36,000  Level Washington Center
04:12PM 35.7003 -77.3800 204° Southwest 481 554 36,000  Level Washington Center
04:13PM 35.5719 -77.4486 204° Southwest 481 554 36,000  Level Washington Center
04:14PM 35.4500 -77.5169 205° Southwest 481 554 36,000  Level Washington Center
04:15PM 35.3339 -77.5958 209° Southwest 481 554 36,000  Level Washington Center
04:16PM 35.2364 -77.6925 219° Southwest 476 548 36,000  Level Washington Center
04:17PM 35.1406 -77.7917 220° Southwest 465 535 36,000  Level Washington Center
04:18PM 35.0447 -77.8931 221° Southwest 465 535 36,000  Level Washington Center
04:19PM 34.9469 -77.9942 220° Southwest 465 535 36,000  Level Washington Center
04:20PM 34.8508 -78.0950 221° Southwest 465 535 36,000  Level Washington Center
04:21PM 34.7547 -78.2008 222° Southwest 465 535 36,000  Level Washington Center
04:22PM 34.6544 -78.3036 220° Southwest 470 541 36,000 -60 Level Washington Center
04:24PM 34.3942 -78.5647 220° Southwest 469 540 35,900 -60 Descending Jacksonville Center
04:25PM 34.2933 -78.6653 219° Southwest 469 540 35,900  Level Jacksonville Center
04:26PM 34.1925 -78.7656 219° Southwest 474 545 35,900  Level Jacksonville Center
04:27PM 34.0956 -78.8628 220° Southwest 474 545 35,900  Level Jacksonville Center
04:28PM 33.9922 -78.9628 219° Southwest 474 545 36,000  Climbing Jacksonville Center
04:29PM 33.8931 -79.0597 219° Southwest 474 545 36,000 -60 Level Jacksonville Center
04:30PM 33.7939 -79.1617 221° Southwest 474 545 35,900 -60 Descending Jacksonville Center
04:31PM 33.6903 -79.2633 219° Southwest 467 537 35,900  Level Jacksonville Center
04:32PM 33.5928 -79.3594 219° Southwest 460 529 36,000  Climbing Jacksonville Center
04:33PM 33.4911 -79.4558 218° Southwest 460 529 35,900  Descending Jacksonville Center
04:34PM 33.3917 -79.5542 220° Southwest 460 529 36,000  Climbing Jacksonville Center
04:35PM 33.2939 -79.6497 219° Southwest 460 529 36,000 -60 Level Jacksonville Center
04:36PM 33.1961 -79.7450 219° Southwest 460 529 35,900 -60 Descending Jacksonville Center
04:37PM 33.0942 -79.8403 218° Southwest 460 529 35,900  Level Jacksonville Center
04:38PM 32.9961 -79.9353 219° Southwest 460 529 36,000  Climbing Jacksonville Center
04:39PM 32.8939 -80.0303 218° Southwest 465 535 36,000 -60 Level Jacksonville Center
04:40PM 32.7833 -80.1153 213° Southwest 470 541 35,900  Descending Jacksonville Center
04:41PM 32.6744 -80.1975 212° Southwest 475 547 36,000  Climbing Jacksonville Center
04:42PM 32.5881 -80.2642 213° Southwest 475 547 35,900  Descending Jacksonville Center
04:43PM 32.4689 -80.3514 212° Southwest 470 541 36,000  Climbing Jacksonville Center
04:44PM 32.3578 -80.4333 212° Southwest 470 541 36,000  Level Jacksonville Center
04:45PM 32.2486 -80.5122 211° Southwest 470 541 36,000  Level Jacksonville Center
04:46PM 32.1372 -80.5936 212° Southwest 470 541 36,000  Level Jacksonville Center
04:47PM 32.0200 -80.6800 212° Southwest 463 533 36,000  Level Jacksonville Center
04:48PM 31.8997 -80.7392 203° Southwest 468 539 36,000  Level Jacksonville Center
04:49PM 31.7814 -80.7786 196° South 481 554 36,000  Level Jacksonville Center
04:50PM 31.6403 -80.8233 195° South 476 548 36,000  Level Jacksonville Center
04:51PM 31.5114 -80.8675 196° South 480 552 36,000  Level Jacksonville Center
04:52PM 31.3972 -80.9042 195° South 474 545 36,000  Level Jacksonville Center
04:53PM 31.2561 -80.9533 197° South 474 545 36,000  Level Jacksonville Center
04:54PM 31.1250 -80.9947 195° South 480 552 36,000  Level Jacksonville Center
04:55PM 30.9983 -81.0386 197° South 480 552 36,000 -60 Level Jacksonville Center
04:56PM 30.8675 -81.0822 196° South 480 552 35,900 -60 Descending Jacksonville Center
04:57PM 30.7386 -81.1208 194° South 480 552 35,900  Level Jacksonville Center
04:58PM 30.6011 -81.1453 189° South 486 559 36,000  Climbing Jacksonville Center
04:59PM 30.4822 -81.1497 182° South 491 565 36,000  Level Jacksonville Center
05:00PM 30.3422 -81.1453 178° South 488 562 36,000  Level Jacksonville Center
05:01PM 30.2064 -81.1403 178° South 494 568 36,000  Level Jacksonville Center
05:02PM 30.0722 -81.1019 166° South 494 568 36,000 -60 Level Jacksonville Center
05:03PM 29.9442 -81.0397 157° South 489 563 35,900 -60 Descending Jacksonville Center
05:05PM 29.7033 -80.9211 157° South 503 579 35,900  Level Miami Center
05:06PM 29.5653 -80.8564 158° South 503 579 35,900  Level Miami Center
05:07PM 29.4625 -80.8050 156° South 497 572 35,900  Level Miami Center
05:08PM 29.3244 -80.7453 159° South 490 564 36,000  Climbing Miami Center
05:09PM 29.1989 -80.6814 156° South 490 564 36,000  Level Miami Center
05:10PM 29.0714 -80.6175 156° South 490 564 36,000  Level Miami Center
05:11PM 28.9456 -80.5611 159° South 490 564 36,000  Level Miami Center
05:12PM 28.8097 -80.4878 155° Southeast 490 564 36,000  Level Miami Center
05:13PM 28.6964 -80.4369 159° South 495 570 36,000  Level Miami Center
05:14PM 28.5561 -80.3661 156° South 495 570 36,000  Level Miami Center
05:15PM 28.4303 -80.3081 158° South 488 562 36,000  Level Miami Center
05:16PM 28.2900 -80.2400 157° South 493 567 36,000 -60 Level Miami Center
05:17PM 28.1619 -80.1797 157° South 493 567 35,900 -600 Descending Miami Center
05:18PM 28.0258 -80.1122 156° South 493 567 34,900 -960 Descending Miami Center
05:19PM 27.9019 -80.0544 158° South 493 567 34,000 -1,380 Descending Miami Center
05:20PM 27.7739 -79.9947 158° South 498 573 32,200 -2,100 Descending Miami Center
05:21PM 27.6497 -79.9372 158° South 492 566 29,800 -2,040 Descending Miami Center
05:22PM 27.5525 -79.8903 157° South 492 566 28,200 -2,100 Descending Miami Center
05:23PM 27.4119 -79.8233 157° South 470 541 25,600 -2,280 Descending Miami Center
05:24PM 27.2942 -79.7711 158° South 465 535 23,700 -2,040 Descending Miami Center
05:25PM 27.1736 -79.7331 164° South 452 520 21,600 -2,100 Descending Miami Center
05:26PM 27.0678 -79.7025 166° South 445 512 19,600 -2,040 Descending Miami Center
05:27PM 26.9578 -79.6694 165° South 425 489 17,600 -2,100 Descending Miami Center
05:28PM 26.8392 -79.6458 170° South 403 464 15,400 -1,920 Descending Miami Center
05:29PM 26.7486 -79.6856 201° Southwest 379 436 13,800 -1,800 Descending Miami Center
05:29PM 26.7211 -79.6989 203° Southwest 368 423 13,300 -1,920 Descending Miami Center
05:30PM 26.6475 -79.7342 203° Southwest 373 429 11,900 -1,800 Descending Miami Center
05:31PM 26.6264 -79.7431 201° Southwest 348 400 11,500 -1,200 Descending Miami Center
05:31PM 26.5714 -79.7694 203° Southwest 348 400 10,700 -1,200 Descending Miami Center
05:32PM 26.5419 -79.7828 202° Southwest 317 365 10,300 -1,920 Descending Miami Center
05:32PM 26.4850 -79.8092 203° Southwest 317 365 8,800 -1,920 Descending Miami Center
05:33PM 26.4661 -79.8203 208° Southwest 292 336 8,400 -840 Descending Miami Center
05:33PM 26.4175 -79.8422 202° Southwest 299 344 8,000 -480 Descending Miami Center
05:33PM 26.3964 -79.8533 205° Southwest 289 333 8,000  Level Miami Center
05:34PM 26.3456 -79.8939 216° Southwest 292 336 8,000  Level Miami Center
05:35PM 26.3261 -79.9142 223° Southwest 288 331 8,000 -840 Level Miami Center
05:35PM 26.2900 -79.9481 220° Southwest 292 336 7,200 -1,260 Descending Miami Center
05:36PM 26.2644 -79.9750 223° Southwest 287 330 6,700 -1,200 Descending Miami Center
05:36PM 26.2325 -80.0044 220° Southwest 292 336 6,000 -720 Descending Miami Center
05:37PM 26.2069 -80.0292 221° Southwest 269 310 6,000  Level Miami Center
05:37PM 26.1811 -80.0564 223° Southwest 281 323 6,000  Level Miami Center
05:38PM 26.1658 -80.0928 245° Southwest 236 272 6,000  Level Miami Center
05:38PM 26.1586 -80.1250 256° West 248 285 6,000 -120 Level Miami Center
05:39PM 26.1475 -80.1594 250° West 239 275 5,900 -660 Descending Miami Center
05:40PM 26.1481 -80.2289 271° West 206 237 5,100 -900 Descending Miami Center
05:41PM 26.1467 -80.2844 268° West 203 234 4,200 -1,080 Descending Miami Center
05:42PM 26.1022 -80.3178 214° Southwest 200 230 3,000 -900 Descending Miami Center
05:43PM 26.0761 -80.2731 123° Southeast 151 174 2,300 -960 Descending Miami Center
05:44PM 26.0750 -80.2292 92° East 143 165 1,100 -1,020 Descending Miami Center
05:45PM 26.0736 -80.1897 92° East 135 155 400 -780 Descending Miami Center